Regional Weather Roundup
Issued by NWS

Home | Current Version | Previous Version | Graphics & Text | Print | Product List | Glossary On
Versions: 1 2 3 4 5 6 7 8 9 10 11 12 13 14 15 16 17 18 19 20 21 22 23 24 25 26 27 28 29 30 31 32 33 34 35 36 37 38 39 40 41 42 43 44 45 46 47 48 49 50
751
ASUS43 KLMK 231510
RWRKY
KENTUCKY REGIONAL WEATHER ROUNDUP
NATIONAL WEATHER SERVICE LOUISVILLE KY
1100 AM EDT MON APR 23 2018

NOTE "FAIR" INDICATES FEW OR NO CLOUDS BELOW 12,000 FEET
WITH NO SIGNIFICANT WEATHER AND/OR OBSTRUCTIONS TO VISIBILITY.

KYZ001>023-026-027-061>063-070>075-231600-
WESTERN AND SOUTH CENTRAL KENTUCKY

CITY           SKY/WX    TMP DP  RH WIND       PRES   REMARKS
PADUCAH        PTSUNNY   60  58  92 E9        29.87R
HENDERSON      CLOUDY    59  55  87 E10       29.96R
OWENSBORO      CLOUDY    62  55  77 SE20      29.96S
HOPKINSVILLE   CLOUDY    61  61 100 E9        29.91S
BOWLING GREEN  RAIN      61  57  87 E17       29.97F FOG
GLASGOW        CLOUDY    59  52  78 E16       29.99S
$$

KYZ024-025-028>034-038-045-046-053-231600-
NORTH CENTRAL KENTUCKY

CITY           SKY/WX    TMP DP  RH WIND       PRES   REMARKS
LOUISVILLE/SDF LGT RAIN  57  54  89 E12       30.05S FOG
LOUISVILLE/LOU RAIN      56  55  97 E14       30.06R FOG
FORT KNOX      LGT RAIN  56  55  96 E14       30.03R
$$

KYZ035>037-039>044-047>052-055>060-089>105-231600-
NORTHEAST KENTUCKY

CITY           SKY/WX    TMP DP  RH WIND       PRES   REMARKS
LEXINGTON      RAIN      56  52  86 E9        30.09R FOG
COVINGTON      RAIN      54  49  83 E9        30.12R
FRANKFORT      RAIN      54  51  90 E8        30.08R FOG
$$

KYZ054-064>069-076>088-106>120-231600-
SOUTHEAST KENTUCKY

CITY           SKY/WX    TMP DP  RH WIND       PRES   REMARKS
JACKSON        RAIN      54  51  90 SE6       30.13R FOG
LONDON         CLOUDY    56  56 100 SE7       30.08S
SOMERSET       CLOUDY    55  55 100 E9        30.07F
MIDDLESBORO    CLOUDY    59  52  78 SE6       30.12R
MONTICELLO     PTSUNNY   63  55  77 SE15G22   30.05
$$





USA.gov is the U.S. government's official web portal to all federal, state and local government web resources and services.